TimeEDT,TemperatureF,Dew PointF,Humidity,Sea Level PressureIn,VisibilityMPH,Wind Direction,Wind SpeedMPH,Gust SpeedMPH,PrecipitationIn,Events,Conditions,WindDirDegrees,DateUTC
12:53 AM,30.0,26.1,85,29.95,10.0,ESE,6.9,-,N/A,,Clear,110,2013-04-08 04:53:00
1:53 AM,30.9,28.0,89,29.95,10.0,East,9.2,-,N/A,,Clear,100,2013-04-08 05:53:00
2:53 AM,30.0,28.0,92,29.94,10.0,East,8.1,-,N/A,,Scattered Clouds,90,2013-04-08 06:53:00
3:53 AM,30.9,28.9,92,29.93,10.0,East,8.1,-,N/A,,Overcast,100,2013-04-08 07:53:00
4:53 AM,30.9,28.9,92,29.91,10.0,East,6.9,-,N/A,,Overcast,90,2013-04-08 08:53:00
5:33 AM,30.2,30.2,100,29.86,1.8,East,8.1,-,0.00,Snow,Light Snow,90,2013-04-08 09:33:00
5:41 AM,30.2,30.2,100,29.86,1.2,East,6.9,-,0.00,Snow,Light Snow,100,2013-04-08 09:41:00
5:53 AM,30.9,30.0,96,29.90,1.0,East,6.9,-,0.02,Snow,Light Snow,100,2013-04-08 09:53:00
6:06 AM,30.2,30.2,100,29.86,1.2,East,5.8,-,0.02,Snow,Light Snow,100,2013-04-08 10:06:00
6:18 AM,30.2,30.2,100,29.87,0.8,ESE,5.8,-,0.05,Snow,Light Snow,120,2013-04-08 10:18:00
6:27 AM,30.2,30.2,100,29.87,0.5,SE,6.9,-,0.07,Fog-Snow,Snow,130,2013-04-08 10:27:00
6:53 AM,30.9,30.0,96,29.90,0.8,ESE,5.8,-,0.14,Snow,Light Snow,110,2013-04-08 10:53:00
7:33 AM,30.2,30.2,100,29.85,1.0,East,4.6,-,0.08,Snow,Light Snow,100,2013-04-08 11:33:00
7:42 AM,30.2,30.2,100,29.85,0.8,East,4.6,-,0.08,Snow,Light Snow,100,2013-04-08 11:42:00
7:53 AM,30.9,30.9,100,29.89,0.5,East,4.6,-,0.09,Fog-Snow,Snow,80,2013-04-08 11:53:00
8:41 AM,32.0,30.2,93,29.86,0.5,East,5.8,-,0.05,Fog-Snow,Snow,80,2013-04-08 12:41:00
8:53 AM,32.0,30.9,96,29.91,0.8,East,5.8,-,0.06,Snow,Light Snow,90,2013-04-08 12:53:00
9:01 AM,32.0,30.2,93,29.86,1.0,East,5.8,-,0.01,Snow,Light Snow,90,2013-04-08 13:01:00
9:11 AM,32.0,30.2,93,29.87,0.5,East,6.9,-,0.02,Fog-Snow,Snow,100,2013-04-08 13:11:00
9:53 AM,32.0,30.9,96,29.90,0.5,East,6.9,-,0.06,Fog-Snow,Snow,100,2013-04-08 13:53:00
10:15 AM,32.0,30.2,93,29.85,0.2,East,8.1,-,0.01,Fog-Snow,Light Snow,100,2013-04-08 14:15:00
10:53 AM,32.0,32.0,100,29.88,0.2,ENE,8.1,-,0.02,Fog-Snow,Light Snow,70,2013-04-08 14:53:00
11:53 AM,33.1,32.0,96,29.87,0.2,East,6.9,-,0.00,Fog-Snow,Light Snow,80,2013-04-08 15:53:00
12:41 PM,33.8,32.0,93,29.83,0.2,East,9.2,-,0.00,Fog,Fog,90,2013-04-08 16:41:00
12:53 PM,33.1,32.0,96,29.87,0.2,East,8.1,-,0.00,Fog,Fog,90,2013-04-08 16:53:00
1:53 PM,33.1,32.0,96,29.88,0.2,East,9.2,-,0.01,Fog,Fog,100,2013-04-08 17:53:00
2:40 PM,33.8,32.0,93,29.85,0.2,East,8.1,-,0.00,Fog,Fog,90,2013-04-08 18:40:00
2:53 PM,33.1,32.0,96,29.88,0.2,East,8.1,-,0.00,Fog,Fog,90,2013-04-08 18:53:00
3:21 PM,32.0,32.0,100,29.84,0.2,East,9.2,-,N/A,Fog,Fog,90,2013-04-08 19:21:00
3:39 PM,32.0,32.0,100,29.84,0.2,East,9.2,-,N/A,Fog,Fog,90,2013-04-08 19:39:00
3:53 PM,32.0,32.0,100,29.88,0.2,East,8.1,-,N/A,Fog,Fog,90,2013-04-08 19:53:00
4:03 PM,32.0,32.0,100,29.85,0.2,East,9.2,-,N/A,Fog,Fog,100,2013-04-08 20:03:00
4:10 PM,32.0,32.0,100,29.85,0.8,East,8.1,-,N/A,,Mist,90,2013-04-08 20:10:00
4:17 PM,32.0,32.0,100,29.85,1.5,East,8.1,-,N/A,,Overcast,90,2013-04-08 20:17:00
4:53 PM,32.0,32.0,100,29.90,0.8,East,8.1,-,N/A,,Mist,90,2013-04-08 20:53:00
5:07 PM,32.0,32.0,100,29.87,2.0,East,6.9,-,N/A,,Overcast,90,2013-04-08 21:07:00
5:16 PM,32.0,32.0,100,29.87,1.2,East,5.8,-,N/A,,Overcast,100,2013-04-08 21:16:00
5:33 PM,32.0,32.0,100,29.87,0.5,ESE,5.8,-,N/A,Fog,Fog,110,2013-04-08 21:33:00
5:51 PM,32.0,32.0,100,29.87,0.2,East,5.8,-,N/A,Fog,Fog,90,2013-04-08 21:51:00
5:53 PM,32.0,32.0,100,29.91,0.2,East,6.9,-,N/A,Fog,Fog,100,2013-04-08 21:53:00
6:53 PM,32.0,32.0,100,29.94,1.0,East,4.6,-,N/A,,Mist,100,2013-04-08 22:53:00
7:51 PM,32.0,32.0,100,29.91,2.5,East,4.6,-,N/A,,Overcast,90,2013-04-08 23:51:00
7:53 PM,32.0,32.0,100,29.95,2.5,East,3.5,-,N/A,,Overcast,90,2013-04-08 23:53:00
8:01 PM,32.0,32.0,100,29.91,3.0,East,4.6,-,N/A,,Overcast,80,2013-04-09 00:01:00
8:07 PM,32.0,32.0,100,29.91,1.8,East,3.5,-,N/A,,Overcast,90,2013-04-09 00:07:00
8:17 PM,32.0,32.0,100,29.92,3.0,East,3.5,-,N/A,,Overcast,90,2013-04-09 00:17:00
8:53 PM,32.0,30.9,96,29.98,5.0,ENE,3.5,-,N/A,,Overcast,60,2013-04-09 00:53:00
9:38 PM,33.8,32.0,93,29.97,1.8,Calm,Calm,-,N/A,,Overcast,0,2013-04-09 01:38:00
9:53 PM,33.1,32.0,96,30.02,1.2,North,3.5,-,N/A,,Overcast,360,2013-04-09 01:53:00
10:18 PM,33.8,32.0,93,29.99,0.5,Calm,Calm,-,N/A,Fog,Fog,0,2013-04-09 02:18:00
10:53 PM,33.1,32.0,96,30.04,0.5,Calm,Calm,-,N/A,Fog,Fog,0,2013-04-09 02:53:00
11:32 PM,33.8,32.0,93,30.01,0.2,Calm,Calm,-,N/A,Fog,Fog,0,2013-04-09 03:32:00
11:35 PM,33.8,32.0,93,30.01,0.5,Calm,Calm,-,N/A,Fog,Fog,0,2013-04-09 03:35:00
11:53 PM,33.1,32.0,96,30.05,0.5,Calm,Calm,-,N/A,Fog,Fog,0,2013-04-09 03:53:00